RH
8 10 14 19 18 21 43 50 20 20 20 19 24 25 23 18 21 61 67 22 21 21 22 19 16 19 23 22 20 20 27 30 32 37 38 43 52 49 52 36 32 30 24 28 28 29 32 32 36
7 8 13 16 18 58 45 34 17 15 18 24 26 25 23 20 21 21 21 22 24 27 33 37 29 25 28 36 34 38 38 40 39 39 47 60 65 66 63 55 41 37 37 35 36 33 39 44 46
7 8 10 11 15 44 46 12 15 15 21 23 25 24 23 22 21 22 23 24 28 34 38 40 46 47 42 38 49 56 63 62 64 64 67 74 83 80 67 63 55 47 44 40 46 46 43 41 46
8 9 9 11 19 40 23 20 15 20 17 18 19 20 20 21 19 23 27 30 31 35 35 38 42 41 41 40 47 51 59 66 67 73 59 67 99 95 83 75 66 59 54 54 55 51 53 52 54
8 9 9 10 13 13 11 12 14 14 13 16 19 16 17 14 17 19 22 23 21 22 25 26 30 34 49 47 34 35 41 44 49 55 67 94 98 90 86 81 80 73 67 65 69 80 72 66 74
10 9 11 22 52 23 6 7 8 9 10 6 9 16 13 9 9 11 8 9 17 20 22 25 27 31 41 34 30 41 34 28 36 53 76 94 85 96 77 81 84 81 74 75 84 96 76 95 88
11 11 12 13 14 9 7 5 7 8 9 9 10 10 9 11 11 10 6 6 8 13 24 25 28 28 29 34 27 27 28 32 40 33 98 43 74 76 73 72 70 76 73 84 94 86 85 81 70
12 10 12 14 14 16 7 6 7 10 10 11 12 16 15 12 13 13 12 9 7 7 10 12 12 13 23 26 28 45 45 33 39 95 41 47 60 91 96 75 86 99 100 95 93 95 97 92 78
12 11 11 14 18 17 9 8 9 8 8 9 12 15 12 12 14 15 17 17 16 12 9 9 11 13 17 26 42 31 35 52 45 36 44 55 52 47 81 80 89 89 92 89 82 91 98 86 79
13 11 12 14 14 11 11 10 8 7 8 8 10 12 12 12 15 17 18 19 21 18 15 12 13 14 13 15 25 32 35 35 48 43 56 53 58 45 35 94 72 76 80 86 94 100 89 79 80
14 13 17 15 14 13 12 12 13 13 9 11 15 12 12 13 16 19 19 19 18 19 17 17 17 16 15 14 14 24 37 39 44 44 50 53 47 38 38 49 69 80 88 84 91 99 90 80 80
14 16 17 15 16 15 14 13 13 14 11 12 15 14 15 15 18 20 22 21 22 20 21 20 20 18 18 19 19 18 23 37 48 61 63 48 52 52 47 61 74 93 92 97 94 96 95 91 88
24 23 24 23 21 20 17 14 13 12 15 16 15 15 16 20 22 24 25 24 24 24 24 24 23 22 21 21 22 22 25 30 42 62 75 64 57 57 64 69 67 84 85 95 97 96 98 97 97
25 30 28 26 22 21 19 20 19 20 24 22 22 22 23 25 28 29 29 29 26 28 26 27 26 26 25 27 27 26 25 31 36 55 67 72 62 54 57 60 74 78 85 96 97 97 96 97 94
38 33 29 31 38 29 27 25 31 31 28 25 25 30 34 33 33 34 34 30 32 30 30 30 30 29 28 30 32 30 28 27 31 47 68 74 64 61 58 62 67 73 81 82 86 88 82 89 86
34 30 28 38 34 29 31 30 44 44 37 33 32 33 34 39 38 37 35 35 34 32 32 30 29 29 29 32 34 29 27 31 37 46 54 76 79 82 81 80 81 80 80 81 77 80 82 89 94
39 32 35 35 41 39 36 28 47 50 41 42 40 41 42 42 41 39 37 35 33 32 27 27 28 30 32 34 35 34 32 32 42 50 58 63 64 69 74 70 80 87 93 92 89 99 97 98 96
44 41 43 44 46 34 35 31 38 49 53 51 52 51 49 46 43 41 37 33 30 28 27 26 29 28 29 28 35 46 44 55 60 66 69 65 59 57 58 63 70 78 76 68 75 82 83 86 77
40 37 36 38 41 39 46 28 35 42 49 60 62 61 56 55 48 48 41 34 25 24 27 25 30 30 28 29 31 52 67 82 83 76 69 62 57 52 50 46 48 40 31 41 55 76 86 79 96
35 39 34 30 34 32 37 24 35 62 69 73 76 76 82 86 70 73 53 40 25 24 21 23 23 34 34 32 30 50 65 63 62 63 68 69 54 43 32 25 20 20 24 34 60 81 76 80 82
36 29 27 28 28 26 78 42 17 68 54 84 91 99 97 99 93 82 67 42 34 33 31 26 23 22 22 22 29 37 50 70 63 65 64 65 51 44 47 34 45 48 55 55 59 71 74 93 88
22 44 41 36 48 28 64 91 10 77 62 87 95 82 86 96 96 97 92 69 54 50 47 43 41 34 31 27 23 24 40 45 60 74 75 61 41 32 37 42 45 58 65 69 74 87 82 86 95
33 56 48 67 67 60 13 100 9 68 61 90 100 97 90 72 88 96 96 95 77 59 54 49 49 48 46 41 36 32 28 28 38 51 53 54 51 38 37 45 49 61 64 72 83 80 76 100 81
45 55 64 59 84 77 29 79 15 53 75 100 97 100 97 83 78 78 81 94 96 79 63 56 49 45 46 46 45 42 42 35 31 38 47 45 58 55 65 63 57 64 70 70 89 86 91 98 71
50 65 76 76 85 96 61 66 44 58 100 98 94 91 72 63 58 58 58 68 78 70 73 73 66 52 46 42 44 45 45 48 42 37 50 52 51 53 68 76 78 75 74 73 80 92 91 84 54
77 85 95 100 85 89 80 84 47 82 90 94 98 85 69 58 48 53 63 66 64 63 63 59 55 49 55 66 66 41 34 36 45 47 41 63 70 65 68 77 85 87 82 80 84 94 99 100 83
85 93 100 100 89 88 56 58 52 71 96 96 75 72 76 82 78 62 55 54 50 44 47 49 49 48 44 38 43 47 46 43 45 42 58 62 78 81 75 76 77 72 60 69 75 70 81 99 98
89 97 100 100 98 95 62 70 55 100 84 94 87 88 74 74 63 55 48 44 40 36 31 27 23 23 26 27 32 40 45 56 61 69 71 81 74 90 96 91 89 74 64 56 53 60 100 100 100
93 91 86 90 96 100 94 45 50 86 87 78 65 59 52 44 37 28 21 17 14 11 8 9 44 14 15 34 16 24 54 61 78 82 74 86 84 72 100 100 98 79 65 59 57 72 88 98 100
89 91 92 96 100 92 100 62 60 70 57 42 29 21 16 12 10 8 7 7 9 11 12 23 10 17 31 76 62 100 100 100 100 100 100 100 79 86 100 100 94 96 73 66 84 93 100 100 100
Wind_Speed
9 8 9 9 9 10 7 15 18 18 16 13 14 14 13 14 18 20 20 22 23 23 24 25 26 28 27 27 30 32 26 23 21 21 22 23 21 21 21 22 22 22 23 22 22 21 21 22 21
9 9 8 8 10 7 5 16 13 15 11 13 13 13 15 17 19 20 22 23 24 26 26 26 29 29 29 28 29 27 28 26 25 26 28 28 27 25 24 24 24 24 24 24 25 24 24 23 23
9 8 8 9 10 8 14 10 15 8 12 12 14 14 16 21 20 21 22 23 23 25 26 26 27 28 30 33 32 31 30 31 30 31 32 32 31 28 26 24 24 25 26 27 27 27 27 26 26
9 8 8 10 11 14 18 21 16 17 13 10 13 16 18 18 20 19 19 22 24 26 26 27 28 30 31 30 30 32 33 32 31 33 33 35 36 31 25 25 25 26 28 28 29 30 27 27 28
11 10 10 11 13 19 16 15 17 17 15 12 14 18 19 20 20 21 22 23 26 27 28 28 28 29 28 31 28 29 31 33 33 33 36 40 44 30 29 28 27 28 30 31 31 31 28 30 29
14 14 13 10 10 20 16 16 16 17 19 19 19 20 23 23 23 24 25 27 27 27 26 28 26 28 29 28 27 26 27 28 26 29 38 31 23 21 27 27 28 30 32 33 33 31 30 31 32
18 16 15 17 18 20 23 18 19 21 22 24 20 22 28 26 26 26 28 29 28 31 27 27 26 25 26 29 26 26 26 24 22 23 28 27 25 17 26 30 30 31 34 33 33 31 29 24 30
21 19 18 19 21 23 30 24 26 25 26 25 25 25 33 25 29 27 25 26 29 30 30 27 30 29 29 27 27 27 28 27 23 26 26 25 26 25 28 32 29 33 34 34 32 33 24 29 31
22 21 20 19 26 29 31 27 29 29 29 31 26 27 32 35 30 31 31 29 31 29 30 28 29 29 30 30 27 27 28 27 27 27 26 28 28 27 28 28 33 31 21 23 30 28 27 31 32
20 19 19 23 29 31 31 33 33 38 35 35 35 35 35 36 32 33 32 32 34 32 31 30 31 31 30 31 31 31 28 27 27 27 29 31 30 32 30 23 30 23 22 20 24 28 25 30 32
25 23 25 25 30 31 34 36 38 39 41 37 39 42 44 41 38 36 36 37 36 33 31 30 31 32 32 30 31 33 32 31 30 30 31 32 33 33 32 32 30 29 30 29 27 31 31 32 34
28 26 28 30 33 36 36 40 44 44 45 43 45 46 48 51 45 43 40 40 36 34 33 31 32 34 33 32 30 32 33 35 33 32 34 34 35 34 34 35 32 32 33 34 32 34 35 34 33
28 28 30 33 34 36 39 41 42 42 45 47 51 51 52 50 52 46 46 45 40 36 35 35 35 33 32 35 33 33 35 35 38 36 34 35 37 36 38 36 37 38 39 38 39 35 32 36 31
35 36 36 36 39 38 41 44 46 47 52 54 54 55 54 53 52 50 47 42 44 35 37 38 35 34 35 36 36 35 34 37 39 40 39 37 38 38 38 38 40 42 41 42 42 36 37 42 43
36 41 40 38 41 45 44 48 50 52 56 55 55 55 56 55 51 48 45 44 40 38 39 37 37 37 37 38 37 35 34 36 38 42 42 39 40 40 40 41 42 44 45 45 48 47 47 46 43
39 44 45 43 48 51 50 52 53 55 58 58 59 59 59 55 50 47 42 39 40 40 40 38 38 38 38 38 37 36 36 36 37 41 42 42 42 42 43 44 45 47 47 49 49 51 53 51 49
42 48 49 50 50 54 58 59 55 57 58 59 63 63 59 55 52 45 41 41 42 41 39 36 35 38 39 38 36 36 36 35 37 38 41 42 41 42 44 45 45 45 46 46 47 49 52 49 46
45 49 51 52 54 62 62 62 57 58 58 61 65 62 55 50 44 42 41 41 38 36 35 33 34 36 37 35 35 37 37 35 37 40 44 45 47 48 48 48 48 48 49 48 48 49 46 45 40
50 53 54 53 55 59 61 64 60 60 64 66 65 58 52 44 40 40 38 39 36 35 31 29 31 35 36 34 37 39 39 39 42 46 49 48 47 47 49 48 48 49 49 47 48 47 42 40 37
50 51 53 55 57 63 65 63 59 62 66 65 60 60 44 39 36 42 39 39 35 32 29 30 31 33 35 36 40 43 45 45 47 49 51 48 47 44 44 44 44 45 47 47 46 45 41 38 41
54 58 58 59 60 58 63 59 55 47 52 53 56 53 40 38 39 38 40 40 41 36 34 32 32 33 36 39 42 47 50 50 50 51 49 48 43 45 45 41 42 42 42 43 42 41 41 37 39
62 58 60 61 57 54 47 47 67 43 43 38 42 46 51 44 44 38 39 40 40 40 39 37 38 39 41 44 46 46 49 51 51 53 54 55 49 47 45 44 45 43 41 44 46 44 41 40 39
60 55 58 55 56 52 58 52 64 44 45 45 38 53 55 54 43 43 44 45 46 46 45 45 44 44 45 47 48 50 50 51 51 52 54 55 53 50 48 49 49 48 46 45 47 45 44 41 45
59 57 56 56 55 58 53 54 57 46 44 26 41 42 48 48 49 47 46 46 49 51 51 53 52 50 51 50 51 52 53 53 54 56 54 54 54 56 54 50 50 50 49 50 47 44 43 47 48
62 57 57 57 56 55 52 53 56 52 28 31 45 53 59 60 57 55 55 53 56 57 59 61 62 60 60 62 59 62 60 58 59 60 61 61 61 61 57 54 53 52 52 50 49 49 49 50 47
59 56 55 56 56 58 58 60 56 50 50 56 58 65 66 67 67 66 65 69 70 70 70 71 71 71 69 70 72 75 73 71 67 64 65 68 66 65 62 59 52 49 49 51 50 49 50 50 51
58 56 57 60 61 62 59 60 56 55 47 49 66 66 67 69 73 77 79 81 82 82 81 82 83 85 86 84 84 82 81 80 81 76 65 68 68 65 64 60 51 49 45 46 49 49 47 54 52
57 58 58 59 62 64 62 63 63 58 71 69 63 64 70 74 81 83 83 85 86 88 89 89 87 89 90 91 89 87 82 77 76 64 61 62 62 66 63 57 56 52 50 49 52 52 53 50 64
58 60 62 64 68 69 71 66 63 65 64 74 79 82 83 84 86 86 87 88 89 91 91 91 76 93 83 75 75 69 67 68 66 66 63 67 66 64 63 62 58 54 50 50 52 55 55 53 56
60 63 64 63 62 68 70 78 71 72 73 76 78 78 80 82 79 80 80 76 72 66 62 57 72 70 66 63 59 68 68 71 73 70 72 72 67 67 70 65 61 57 53 57 56 55 50 50 54
Wind_Direction
241 239 238 243 255 256 266 255 255 272 263 257 261 263 262 262 253 249 281 279 283 288 289 285 275 267 271 273 273 273 265 267 266 267 271 274 279 282 292 291 289 291 291 292 292 291 291 293 296
231 227 234 231 246 257 297 256 269 255 260 269 267 265 265 264 260 257 264 273 276 276 276 279 275 271 271 269 269 268 271 267 268 270 275 277 277 280 281 280 282 282 285 287 288 288 289 292 295
227 226 234 240 240 236 225 250 274 287 275 277 274 270 266 257 261 265 268 271 274 275 274 274 271 267 272 276 271 269 265 268 271 274 276 276 273 270 268 270 270 273 276 279 281 284 285 291 297
237 232 231 234 244 255 250 271 280 284 274 260 259 267 266 275 273 275 274 275 274 274 269 267 267 268 269 265 266 265 264 263 264 264 269 267 257 255 257 262 264 268 270 271 274 279 285 289 289
247 246 250 261 276 277 276 278 284 283 273 267 262 263 267 271 274 274 276 277 278 277 279 284 283 284 268 266 265 264 262 260 260 264 268 266 262 240 255 257 259 263 267 269 273 278 283 286 288
245 240 254 266 288 274 278 279 282 278 278 270 277 283 274 274 279 279 280 283 282 281 286 291 288 287 277 269 269 264 262 261 262 262 263 275 273 242 253 255 257 258 262 265 269 275 280 281 282
251 247 252 259 255 275 277 275 274 277 281 282 292 292 289 291 296 294 292 287 286 286 282 281 284 283 278 275 271 270 264 260 259 266 277 275 280 264 252 250 255 259 260 261 266 275 275 278 282
256 253 255 259 263 260 271 271 278 282 282 283 286 287 286 294 289 293 290 288 284 281 282 282 285 286 281 274 276 269 266 267 267 261 264 265 265 267 265 259 255 259 258 259 268 271 277 274 279
264 257 254 250 251 254 267 275 277 271 271 273 277 277 281 287 287 287 287 282 284 285 282 285 289 291 290 285 275 266 265 265 266 264 263 266 264 263 260 256 252 249 290 271 263 271 269 274 280
265 262 256 248 255 266 269 276 275 279 276 276 278 277 276 277 283 284 281 277 279 282 285 283 286 288 291 293 284 282 269 264 266 259 259 264 266 267 274 277 284 278 280 274 268 269 270 274 281
275 271 265 265 267 271 277 278 275 271 275 279 279 280 283 281 284 282 280 278 275 276 276 276 277 279 281 286 289 284 277 273 267 262 261 262 262 266 267 268 274 277 277 275 267 262 265 272 278
281 284 284 285 284 281 278 275 274 278 280 279 280 282 282 285 284 285 283 282 276 271 268 265 264 269 276 278 279 279 277 274 267 260 263 260 261 262 265 267 271 271 273 271 259 259 264 269 280
282 282 286 284 282 280 281 279 276 273 276 279 278 276 279 282 284 284 283 283 280 268 260 259 259 262 269 273 274 274 275 271 268 262 257 258 259 261 262 265 267 269 272 271 264 261 259 263 254
281 285 283 281 284 283 279 279 283 285 281 275 273 275 276 277 279 280 281 278 279 264 263 260 257 258 258 259 263 266 269 274 271 266 263 256 257 257 260 263 266 270 273 277 275 269 268 262 267
283 281 282 285 286 282 282 285 287 284 281 282 280 278 277 277 275 275 275 275 270 266 260 259 256 256 254 255 257 260 262 264 269 269 264 260 257 258 259 259 259 265 268 269 273 277 275 279 280
285 285 287 287 287 290 289 288 287 282 283 283 282 278 277 277 276 274 269 264 261 261 262 260 255 255 253 255 257 257 258 261 266 269 269 261 261 261 262 264 264 262 264 268 271 275 276 276 276
289 290 291 291 290 291 293 291 288 286 286 282 279 279 279 279 278 271 265 260 258 256 257 256 253 253 253 251 255 258 259 259 261 264 264 264 263 263 265 268 267 267 267 270 273 273 274 276 268
288 288 289 290 292 294 292 291 294 288 285 283 280 280 279 276 273 270 265 261 257 254 255 256 248 248 249 253 256 256 259 260 259 258 259 260 261 264 265 266 268 267 272 273 273 273 276 280 284
296 293 291 290 289 289 290 294 295 290 285 281 283 283 278 274 270 266 264 262 259 252 249 254 250 250 250 253 257 255 256 252 254 257 259 262 263 262 264 265 265 267 269 269 268 271 271 275 277
290 292 292 291 291 290 290 292 291 288 288 286 281 278 274 271 265 264 262 264 263 260 258 254 260 256 259 259 258 255 255 252 252 255 258 260 262 263 261 263 265 267 269 270 267 269 271 275 272
293 290 290 289 288 292 289 289 298 290 296 291 293 287 278 268 266 267 265 264 265 268 265 258 259 259 262 265 261 262 259 256 258 257 260 262 259 258 259 263 265 264 267 270 269 272 274 272 272
295 288 287 287 288 293 288 280 303 291 286 292 289 285 273 269 262 256 259 262 264 263 263 262 261 260 261 263 263 260 261 262 261 259 257 258 258 258 263 265 266 264 266 266 268 271 273 268 260
298 290 291 289 287 288 298 282 302 288 280 277 276 274 285 282 282 265 260 256 261 263 263 260 260 259 257 257 258 260 262 262 260 259 258 259 258 257 260 261 262 262 267 268 267 269 273 261 271
294 292 291 291 288 284 298 288 295 292 289 276 272 268 270 279 276 274 274 270 266 267 269 268 266 263 262 261 262 262 262 259 259 261 262 262 260 261 264 260 260 260 262 264 266 268 261 264 268
294 291 290 286 286 289 287 279 288 283 268 265 271 279 280 283 277 273 276 276 274 272 270 268 267 263 263 266 266 265 261 258 256 257 259 260 261 265 265 262 262 257 259 260 264 266 266 264 261
290 290 287 283 284 282 282 280 286 285 277 283 276 277 277 281 281 279 277 277 277 274 271 268 266 264 261 261 262 263 263 262 259 256 256 257 257 258 261 264 262 260 262 261 265 269 266 258 257
291 289 285 286 286 283 282 280 280 282 279 267 274 280 283 281 277 276 276 275 275 271 269 270 270 270 268 265 265 264 263 261 259 261 258 254 257 254 257 257 255 256 253 256 262 261 263 266 248
290 288 288 287 285 283 283 283 283 277 279 286 287 284 282 280 279 280 281 279 278 278 276 273 270 270 269 268 266 266 264 260 259 253 249 246 252 254 252 247 248 251 252 256 258 260 260 263 265
290 289 288 286 286 287 287 283 285 284 289 285 283 284 286 286 285 285 283 281 280 279 279 276 275 273 271 266 263 258 251 250 242 243 242 242 248 248 243 246 247 248 251 252 254 260 265 267 244
286 284 285 285 284 284 284 286 289 289 289 289 289 288 287 290 288 285 280 279 281 281 278 286 277 275 273 262 250 239 237 233 232 232 232 236 241 243 246 242 247 248 249 250 257 264 238 240 231